STARLINK-31863, 59789

Orbit data source: Space-Track

STARLINK-31863, 59789 is a payload satellite owned by SpaceX/Seattle (US) in LEO that was launched on Sat, 18 May 2024 UTC via an FALCON 9 launch vehicle from the Air Force Eastern Test Range (AFETR). Payload-class satellites include a variety of spacecraft equipped with specific instruments for various scientific and technological missions. These include communications satellites like Starlink; space stations such as the ISS; scientific satellites like the Hubble; Earth observation satellites from companies like Planet Labs, Umbra, and HawkEye 360; GPS; miniature CubeSats for education and research; and military/defense satellites.

Loading next visibility...
Identifier
59789, 2024-093H
Orbit
LEO
Country
Flag of USUS
Related business
Manufacturer
SpaceX/Seattle
Mission
Operational Commercial Communications
Bus & Motor
STARLINK V2M, Unknown motor
Mass
730 kg wet, ~700 kg dry
Launch date (UTC)
2024-05-18 (2 years ago)
Launch vehicle
FALCON 9
Launch site
Air Force Eastern Test Range (AFETR)
Object type
Payload
Rocket body
Debris
Shape & HBR
Box + 2 Pan, 17.7 m
Radar Cross Section
33.884 m², Large (>1 m²)

Expand to show TLE details & history
Last TLE update: 1 day ago

TLE from 1 day ago
0 STARLINK-31863
1 59789U 24093H   26037.00954455  .00001419  00000-0  61073-4 0  9992
2 59789  43.0007  27.5249 0000705 290.3291  69.7485 15.27580940 97850
Epoch: 2026-02-06T00:13Z
TLE epoch observation values (Epoch: 2026-02-06T00:13:44.649Z)
Latitude
0.00001°
Longitude
-112.0647°
Altitude
482.654 km
Speed
7.626 km/s
True Right ascension
01h 50m 05s
True Declination
0° 00' 00"
Sunlit
Object was in daylight at epoch
Visualization orbit readout
Latitude
Unknown
Longitude
Unknown
Altitude
Unknown
Speed
Unknown
Apparent Right ascension
Unknown
Apparent Declination
Unknown
Sunlit
N/A
Visualization observer readout
Local Sidereal Time
09:16:27
Azimuth
Unknown
Elevation
Unknown
Doppler factor
Unknown
Orbital elements
Apogee altitude
485.475 km
Perigee altitude
484.507 km
Semi-major axis
6,863.128 km
Eccentricity
0.00007
Inclination
43.0007°
RAAN
27.5249°
Arg. of periapsis
290.3291°
True anomaly
69.75608°
Mean anomaly
69.7485°
Eccentric anomaly
69.75229°
Mean motion
3.81733 °/min
Orbital period
94.31 mins
BSTAR
0.000061073
Loading maneuver chart data...
Computing Atmospheric mass density...
Loading historical data...
Loading historical data...
Loading historical data...
Loading historical data...
Loading historical data...
Loading historical data...
Loading historical data...

Documentation

Showing up to 5 results
|